WMT8JP LIRF-EGBB

Flight info

Callsign WMT8JP
Flight time 2h 16m
Altitude 34000
Route NEMBO DCT ELKAP DCT GOVGO DCT AOSTA DCT ORSUD DCT MOLUS DCT IBODI DCT GOTED DCT TRO DCT CLM DCT KOPOR DCT ABNUR DCT DIMAL DCT ALESO T420 HEMEL
Aircraft A21N/M-SDE2E3FGHIRWXY/LB1

Departure

Time 2026-05-07 19:19
Airport Rome–Fiumicino Leonardo da Vinci International Airport (LIRF)

Arrival

Time 2026-05-07 21:35
Airport Birmingham Airport (EGBB)
Time Latitude Longitude Altitude Speed Heading
2026-05-07 18:59 41.79392 12.24478 19 ft 0 kts 70°
2026-05-07 19:03 41.79386 12.24457 19 ft 4 kts 65°
2026-05-07 19:03 41.79373 12.24426 20 ft 4 kts 52°
2026-05-07 19:03 41.79354 12.24400 24 ft 4 kts 36°
2026-05-07 19:03 41.79331 12.24383 24 ft 4 kts 17°
2026-05-07 19:04 41.79305 12.24377 21 ft 5 kts 359°
2026-05-07 19:04 41.79278 12.24382 20 ft 5 kts 344°
2026-05-07 19:04 41.79257 12.24391 22 ft 4 kts 340°
2026-05-07 19:04 41.79232 12.24403 21 ft 4 kts 340°
2026-05-07 19:05 41.79212 12.24413 22 ft 0 kts 340°
2026-05-07 19:08 41.79220 12.24409 19 ft 3 kts 340°
2026-05-07 19:09 41.79252 12.24393 19 ft 7 kts 339°
2026-05-07 19:09 41.79306 12.24368 19 ft 10 kts 338°
2026-05-07 19:09 41.79353 12.24337 19 ft 9 kts 313°
2026-05-07 19:09 41.79376 12.24291 19 ft 0 kts 306°
2026-05-07 19:10 41.79384 12.24275 19 ft 4 kts 306°
2026-05-07 19:10 41.79397 12.24223 19 ft 8 kts 250°
2026-05-07 19:11 41.79370 12.24133 19 ft 12 kts 249°
2026-05-07 19:11 41.79344 12.24005 19 ft 16 kts 250°
2026-05-07 19:11 41.79350 12.23889 21 ft 14 kts 329°
2026-05-07 19:11 41.79456 12.23844 20 ft 18 kts 342°
2026-05-07 19:12 41.79586 12.23789 22 ft 21 kts 343°
2026-05-07 19:12 41.79737 12.23725 20 ft 25 kts 342°
2026-05-07 19:12 41.79874 12.23676 20 ft 16 kts 13°
2026-05-07 19:12 41.79934 12.23815 20 ft 20 kts 69°
2026-05-07 19:13 41.79982 12.23985 19 ft 15 kts 71°
2026-05-07 19:13 41.80006 12.24141 19 ft 19 kts 69°
2026-05-07 19:13 41.80056 12.24324 19 ft 23 kts 70°
2026-05-07 19:13 41.80115 12.24538 21 ft 26 kts 69°
2026-05-07 19:14 41.80183 12.24780 19 ft 30 kts 71°
2026-05-07 19:14 41.80206 12.25072 19 ft 34 kts 73°
2026-05-07 19:14 41.80286 12.25361 20 ft 35 kts 68°
2026-05-07 19:14 41.80386 12.25674 20 ft 38 kts 59°
2026-05-07 19:15 41.80440 12.25862 20 ft 19 kts 95°
2026-05-07 19:15 41.80448 12.25944 20 ft 2 kts 78°
2026-05-07 19:15 41.80457 12.25978 20 ft 6 kts 69°
2026-05-07 19:15 41.80477 12.26054 20 ft 11 kts 70°
2026-05-07 19:16 41.80511 12.26177 22 ft 17 kts 70°
2026-05-07 19:16 41.80556 12.26341 21 ft 21 kts 69°
2026-05-07 19:16 41.80609 12.26534 23 ft 22 kts 70°
2026-05-07 19:16 41.80664 12.26733 21 ft 23 kts 70°
2026-05-07 19:17 41.80720 12.26939 21 ft 24 kts 70°
2026-05-07 19:17 41.80753 12.27032 19 ft 10 kts 45°
2026-05-07 19:17 41.80820 12.27036 19 ft 11 kts 340°
2026-05-07 19:17 41.80895 12.26999 19 ft 12 kts 340°
2026-05-07 19:18 41.80957 12.26937 18 ft 11 kts 274°
2026-05-07 19:18 41.80945 12.26879 20 ft 0 kts 249°
2026-05-07 19:18 41.80904 12.26730 20 ft 47 kts 251°
2026-05-07 19:18 41.80686 12.25942 23 ft 134 kts 250°
2026-05-07 19:19 41.80265 12.24423 165 ft 201 kts 250°
2026-05-07 19:19 41.79743 12.22592 1117 ft 226 kts 251°
2026-05-07 19:19 41.79280 12.20563 2080 ft 226 kts 263°
2026-05-07 19:19 41.79180 12.18372 2649 ft 246 kts 270°
2026-05-07 19:20 41.79145 12.15993 3120 ft 263 kts 270°
2026-05-07 19:20 41.79096 12.13511 3850 ft 269 kts 269°
2026-05-07 19:20 41.79036 12.10982 4636 ft 273 kts 268°
2026-05-07 19:20 41.78984 12.08423 5459 ft 276 kts 269°
2026-05-07 19:21 41.78987 12.05884 6294 ft 277 kts 269°
2026-05-07 19:21 41.78995 12.03296 7066 ft 279 kts 268°
2026-05-07 19:21 41.78993 12.00693 7838 ft 281 kts 269°
2026-05-07 19:21 41.79279 11.98096 8537 ft 286 kts 289°
2026-05-07 19:22 41.80167 11.95707 9336 ft 287 kts 298°
2026-05-07 19:22 41.81187 11.93402 10099 ft 289 kts 299°
2026-05-07 19:22 41.82237 11.91022 10472 ft 305 kts 298°
2026-05-07 19:22 41.83312 11.88524 10734 ft 322 kts 298°
2026-05-07 19:23 41.84450 11.85840 10959 ft 340 kts 298°
2026-05-07 19:23 41.85646 11.83004 11199 ft 358 kts 298°
2026-05-07 19:23 41.86893 11.80052 11611 ft 368 kts 298°
2026-05-07 19:23 41.88157 11.77048 12224 ft 372 kts 298°
2026-05-07 19:24 41.89431 11.74012 12891 ft 375 kts 297°
2026-05-07 19:24 41.90711 11.70952 13541 ft 378 kts 297°
2026-05-07 19:24 41.91999 11.67859 14123 ft 381 kts 297°
2026-05-07 19:24 41.93276 11.64788 14702 ft 383 kts 297°
2026-05-07 19:25 41.94580 11.61658 15302 ft 385 kts 297°
2026-05-07 19:25 41.95889 11.58513 15905 ft 387 kts 297°
2026-05-07 19:25 41.97204 11.55342 16505 ft 389 kts 297°
2026-05-07 19:25 41.98532 11.52155 17109 ft 392 kts 297°
2026-05-07 19:26 42.00009 11.49060 17681 ft 398 kts 308°
2026-05-07 19:26 42.02075 11.46544 18242 ft 404 kts 320°
2026-05-07 19:26 42.04350 11.44298 18747 ft 407 kts 321°
2026-05-07 19:26 42.06616 11.42087 19258 ft 408 kts 321°
2026-05-07 19:27 42.08909 11.39824 19774 ft 410 kts 320°
2026-05-07 19:27 42.11205 11.37539 20275 ft 411 kts 320°
2026-05-07 19:27 42.13502 11.35225 20766 ft 413 kts 320°
2026-05-07 19:27 42.15803 11.32899 21247 ft 415 kts 320°
2026-05-07 19:28 42.18115 11.30560 21734 ft 417 kts 320°
2026-05-07 19:28 42.20436 11.28196 22186 ft 419 kts 320°
2026-05-07 19:28 42.22767 11.25822 22635 ft 421 kts 320°
2026-05-07 19:28 42.25114 11.23430 23081 ft 424 kts 320°
2026-05-07 19:29 42.27435 11.21058 23519 ft 426 kts 320°
2026-05-07 19:29 42.29804 11.18635 23881 ft 428 kts 320°
2026-05-07 19:29 42.32184 11.16210 24238 ft 430 kts 320°
2026-05-07 19:29 42.34587 11.13773 24589 ft 432 kts 319°
2026-05-07 19:30 42.36996 11.11321 24934 ft 435 kts 319°
2026-05-07 19:30 42.39423 11.08863 25277 ft 437 kts 319°
2026-05-07 19:30 42.41858 11.06396 25614 ft 439 kts 319°
2026-05-07 19:30 42.44310 11.03905 25950 ft 441 kts 319°
2026-05-07 19:31 42.46767 11.01394 26276 ft 443 kts 319°
2026-05-07 19:31 42.49198 10.98903 26598 ft 445 kts 318°
2026-05-07 19:31 42.51667 10.96362 26973 ft 446 kts 318°
2026-05-07 19:31 42.54149 10.93817 27297 ft 448 kts 318°
2026-05-07 19:32 42.56635 10.91261 27651 ft 448 kts 317°
2026-05-07 19:32 42.59112 10.88707 28064 ft 447 kts 317°
2026-05-07 19:32 42.61592 10.86160 28485 ft 446 kts 317°
2026-05-07 19:32 42.64059 10.83622 28896 ft 445 kts 317°
2026-05-07 19:33 42.66519 10.81082 29295 ft 443 kts 317°
2026-05-07 19:33 42.68971 10.78544 29662 ft 442 kts 316°
2026-05-07 19:33 42.71403 10.76022 30196 ft 437 kts 316°
2026-05-07 19:33 42.73772 10.73575 30731 ft 431 kts 316°
2026-05-07 19:34 42.76137 10.71104 31170 ft 426 kts 315°
2026-05-07 19:34 42.78482 10.68639 31417 ft 426 kts 315°
2026-05-07 19:34 42.80838 10.66183 31656 ft 427 kts 315°
2026-05-07 19:34 42.83192 10.63727 31920 ft 426 kts 315°
2026-05-07 19:35 42.85547 10.61274 32183 ft 426 kts 315°
2026-05-07 19:35 42.87900 10.58828 32433 ft 425 kts 315°
2026-05-07 19:35 42.90251 10.56385 32690 ft 425 kts 315°
2026-05-07 19:35 42.92568 10.53969 32906 ft 425 kts 314°
2026-05-07 19:36 42.94914 10.51519 33152 ft 424 kts 314°
2026-05-07 19:36 42.97251 10.49072 33431 ft 423 kts 314°
2026-05-07 19:36 42.99580 10.46637 33704 ft 421 kts 314°
2026-05-07 19:36 43.01894 10.44204 33905 ft 420 kts 313°
2026-05-07 19:37 43.04208 10.41764 34025 ft 421 kts 314°
2026-05-07 19:37 43.06531 10.39323 34032 ft 421 kts 314°
2026-05-07 19:37 43.11143 10.34480 34004 ft 421 kts 314°
2026-05-07 19:38 43.15781 10.29598 33999 ft 421 kts 314°
2026-05-07 19:38 43.20401 10.24734 34010 ft 416 kts 313°
2026-05-07 19:39 43.24988 10.19886 34019 ft 416 kts 313°
2026-05-07 19:39 43.29573 10.15020 34010 ft 417 kts 313°
2026-05-07 19:40 43.34134 10.10172 34008 ft 417 kts 313°
2026-05-07 19:40 43.38734 10.05293 34010 ft 418 kts 314°
2026-05-07 19:41 43.43327 10.00418 34010 ft 417 kts 313°
2026-05-07 19:41 43.47916 9.95541 34004 ft 417 kts 313°
2026-05-07 19:42 43.52467 9.90675 34005 ft 417 kts 313°
2026-05-07 19:42 43.57048 9.85779 34002 ft 417 kts 313°
2026-05-07 19:43 43.61626 9.80862 34037 ft 417 kts 313°
2026-05-07 19:43 43.66181 9.75964 34011 ft 414 kts 313°
2026-05-07 19:44 43.70691 9.71099 34007 ft 414 kts 313°
2026-05-07 19:44 43.75228 9.66191 34009 ft 414 kts 313°
2026-05-07 19:45 43.79750 9.61257 34010 ft 414 kts 313°
2026-05-07 19:45 43.84280 9.56334 34020 ft 412 kts 314°
2026-05-07 19:46 43.88781 9.51442 34011 ft 411 kts 313°
2026-05-07 19:46 43.93250 9.46575 34010 ft 411 kts 313°
2026-05-07 19:47 43.97755 9.41662 34014 ft 412 kts 313°
2026-05-07 19:47 44.02273 9.36755 34007 ft 412 kts 313°
2026-05-07 19:48 44.06762 9.31851 34022 ft 408 kts 313°
2026-05-07 19:48 44.11183 9.27000 34010 ft 407 kts 313°
2026-05-07 19:49 44.15628 9.22110 34002 ft 407 kts 313°
2026-05-07 19:49 44.20065 9.17215 34017 ft 407 kts 313°
2026-05-07 19:50 44.24503 9.12314 34006 ft 407 kts 313°
2026-05-07 19:50 44.28911 9.07419 34043 ft 405 kts 313°
2026-05-07 19:51 44.33298 9.02557 34010 ft 406 kts 313°
2026-05-07 19:51 44.37717 8.97665 34006 ft 405 kts 313°
2026-05-07 19:52 44.42133 8.92750 34000 ft 405 kts 313°
2026-05-07 19:52 44.46538 8.87829 33998 ft 405 kts 313°
2026-05-07 19:53 44.50892 8.82937 34017 ft 404 kts 313°
2026-05-07 19:53 44.55286 8.78009 34020 ft 405 kts 313°
2026-05-07 19:54 44.59688 8.73064 34012 ft 405 kts 313°
2026-05-07 19:54 44.64083 8.68125 34004 ft 405 kts 313°
2026-05-07 19:55 44.68461 8.63198 34018 ft 407 kts 313°
2026-05-07 19:55 44.72884 8.58192 34014 ft 409 kts 313°
2026-05-07 19:56 44.77323 8.53182 34011 ft 409 kts 313°
2026-05-07 19:56 44.81763 8.48169 34011 ft 409 kts 313°
2026-05-07 19:57 44.86169 8.43175 34005 ft 409 kts 313°
2026-05-07 19:57 44.90604 8.38124 34017 ft 412 kts 314°
2026-05-07 19:58 44.95078 8.33045 34007 ft 413 kts 314°
2026-05-07 19:58 44.99545 8.27937 34000 ft 413 kts 314°
2026-05-07 19:59 45.03973 8.22855 33993 ft 413 kts 314°
2026-05-07 19:59 45.08439 8.17737 34000 ft 413 kts 314°
2026-05-07 20:00 45.12907 8.12603 34013 ft 414 kts 314°
2026-05-07 20:00 45.17366 8.07427 34009 ft 416 kts 314°
2026-05-07 20:01 45.21836 8.02281 33995 ft 417 kts 314°
2026-05-07 20:01 45.26326 7.97080 33995 ft 417 kts 314°
2026-05-07 20:02 45.30822 7.91874 34016 ft 417 kts 314°
2026-05-07 20:02 45.35333 7.86620 33998 ft 420 kts 315°
2026-05-07 20:03 45.39832 7.81385 33993 ft 421 kts 315°
2026-05-07 20:03 45.44350 7.76099 34007 ft 421 kts 315°
2026-05-07 20:04 45.48877 7.70810 34019 ft 421 kts 315°
2026-05-07 20:04 45.53419 7.65524 34036 ft 422 kts 315°
2026-05-07 20:05 45.57962 7.60192 34023 ft 423 kts 315°
2026-05-07 20:05 45.62466 7.54891 34026 ft 423 kts 315°
2026-05-07 20:06 45.66998 7.49541 34030 ft 422 kts 315°
2026-05-07 20:06 45.71531 7.44186 33972 ft 423 kts 315°
2026-05-07 20:07 45.76066 7.38825 33974 ft 423 kts 315°
2026-05-07 20:07 45.80561 7.33481 33968 ft 423 kts 315°
2026-05-07 20:08 45.85044 7.28027 33969 ft 422 kts 314°
2026-05-07 20:08 45.89517 7.22568 33983 ft 422 kts 314°
2026-05-07 20:09 45.93992 7.17090 33993 ft 422 kts 315°
2026-05-07 20:10 46.00712 7.08879 33997 ft 423 kts 315°
2026-05-07 20:10 46.05159 7.03403 34017 ft 424 kts 315°
2026-05-07 20:11 46.09633 6.97872 34006 ft 424 kts 315°
2026-05-07 20:11 46.14114 6.92343 33992 ft 423 kts 315°
2026-05-07 20:12 46.18580 6.86816 34032 ft 422 kts 315°
2026-05-07 20:12 46.23037 6.81291 34017 ft 422 kts 315°
2026-05-07 20:13 46.27472 6.75784 34017 ft 424 kts 315°
2026-05-07 20:13 46.31943 6.70222 34016 ft 424 kts 315°
2026-05-07 20:14 46.36414 6.64650 34014 ft 424 kts 315°
2026-05-07 20:14 46.40885 6.59075 34019 ft 423 kts 315°
2026-05-07 20:15 46.45301 6.53524 34013 ft 423 kts 315°
2026-05-07 20:15 46.49752 6.47955 34018 ft 423 kts 315°
2026-05-07 20:16 46.54210 6.42361 34029 ft 424 kts 315°
2026-05-07 20:16 46.58672 6.36748 34034 ft 424 kts 315°
2026-05-07 20:17 46.63120 6.31128 34038 ft 424 kts 315°
2026-05-07 20:17 46.67539 6.25521 34043 ft 424 kts 315°
2026-05-07 20:18 46.71988 6.19877 34041 ft 424 kts 315°
2026-05-07 20:18 46.76438 6.14232 34044 ft 424 kts 315°
2026-05-07 20:19 46.80881 6.08565 34057 ft 424 kts 315°
2026-05-07 20:19 46.85272 6.02953 34044 ft 422 kts 315°
2026-05-07 20:20 46.89682 5.97302 34042 ft 422 kts 315°
2026-05-07 20:20 46.94095 5.91648 34043 ft 422 kts 316°
2026-05-07 20:21 46.99117 5.87046 34034 ft 429 kts 328°
2026-05-07 20:21 47.04384 5.83059 34047 ft 428 kts 328°
2026-05-07 20:22 47.09639 5.78997 34040 ft 427 kts 327°
2026-05-07 20:22 47.14889 5.74919 34040 ft 426 kts 325°
2026-05-07 20:23 47.19525 5.69671 34035 ft 420 kts 315°
2026-05-07 20:23 47.24014 5.64182 34033 ft 420 kts 316°
2026-05-07 20:24 47.28551 5.58760 34044 ft 420 kts 316°
2026-05-07 20:24 47.33053 5.53385 34042 ft 420 kts 316°
2026-05-07 20:25 47.37582 5.47954 34044 ft 420 kts 316°
2026-05-07 20:25 47.42112 5.42518 34050 ft 419 kts 316°
2026-05-07 20:26 47.46638 5.37063 34047 ft 420 kts 316°
2026-05-07 20:26 47.51162 5.31598 34051 ft 420 kts 316°
2026-05-07 20:27 47.55654 5.26156 34052 ft 420 kts 316°
2026-05-07 20:27 47.60171 5.20667 34061 ft 420 kts 316°
2026-05-07 20:28 47.64677 5.15143 34053 ft 420 kts 316°
2026-05-07 20:28 47.69199 5.09650 34073 ft 420 kts 316°
2026-05-07 20:29 47.73712 5.04138 34053 ft 421 kts 316°
2026-05-07 20:29 47.78204 4.98646 34058 ft 421 kts 316°
2026-05-07 20:30 47.82724 4.93098 34056 ft 421 kts 316°
2026-05-07 20:30 47.87222 4.87518 34056 ft 421 kts 316°
2026-05-07 20:31 47.91733 4.81947 34068 ft 421 kts 316°
2026-05-07 20:31 47.96244 4.76363 34054 ft 422 kts 316°
2026-05-07 20:32 48.00729 4.70814 34058 ft 422 kts 316°
2026-05-07 20:32 48.05247 4.65224 34059 ft 422 kts 316°
2026-05-07 20:33 48.09754 4.59597 34048 ft 422 kts 316°
2026-05-07 20:33 48.14268 4.53988 34064 ft 422 kts 316°
2026-05-07 20:34 48.18777 4.48330 34062 ft 423 kts 316°
2026-05-07 20:34 48.23259 4.42695 34054 ft 423 kts 316°
2026-05-07 20:35 48.27767 4.37022 34051 ft 423 kts 316°
2026-05-07 20:35 48.32277 4.31338 34053 ft 423 kts 316°
2026-05-07 20:36 48.36796 4.25653 34072 ft 424 kts 316°
2026-05-07 20:36 48.41321 4.19928 34059 ft 426 kts 316°
2026-05-07 20:37 48.45825 4.14206 34071 ft 426 kts 316°
2026-05-07 20:37 48.50352 4.08437 34056 ft 426 kts 316°
2026-05-07 20:38 48.54870 4.02649 34077 ft 426 kts 316°
2026-05-07 20:38 48.59399 3.96879 34079 ft 427 kts 316°
2026-05-07 20:39 48.63905 3.91118 34070 ft 427 kts 316°
2026-05-07 20:39 48.68438 3.85300 34068 ft 427 kts 316°
2026-05-07 20:40 48.72961 3.79469 34064 ft 427 kts 316°
2026-05-07 20:40 48.77484 3.73621 34067 ft 427 kts 316°
2026-05-07 20:41 48.82005 3.67768 34060 ft 427 kts 316°
2026-05-07 20:41 48.86492 3.61949 34060 ft 427 kts 316°
2026-05-07 20:42 48.91007 3.56070 34060 ft 427 kts 316°
2026-05-07 20:42 48.95517 3.50183 34065 ft 427 kts 316°
2026-05-07 20:43 49.00024 3.44287 34061 ft 428 kts 316°
2026-05-07 20:43 49.04511 3.38418 34068 ft 428 kts 316°
2026-05-07 20:44 49.09024 3.32497 34060 ft 428 kts 316°
2026-05-07 20:44 49.13527 3.26565 34062 ft 428 kts 316°
2026-05-07 20:45 49.18028 3.20620 34064 ft 427 kts 316°
2026-05-07 20:45 49.22519 3.14666 34062 ft 428 kts 316°
2026-05-07 20:46 49.27016 3.08707 34074 ft 428 kts 316°
2026-05-07 20:46 49.31486 3.02757 34067 ft 428 kts 316°
2026-05-07 20:47 49.35986 2.96766 34065 ft 428 kts 316°
2026-05-07 20:47 49.40477 2.90760 34068 ft 428 kts 316°
2026-05-07 20:48 49.44968 2.84740 34068 ft 428 kts 316°
2026-05-07 20:48 49.49455 2.78712 34069 ft 428 kts 316°
2026-05-07 20:49 49.53929 2.72686 34068 ft 428 kts 316°
2026-05-07 20:49 49.58373 2.66680 34074 ft 429 kts 315°
2026-05-07 20:50 49.62859 2.60602 34071 ft 429 kts 315°
2026-05-07 20:50 49.67337 2.54514 34068 ft 429 kts 315°
2026-05-07 20:51 49.71818 2.48413 34066 ft 429 kts 315°
2026-05-07 20:51 49.76291 2.42307 34067 ft 428 kts 315°
2026-05-07 20:52 49.80755 2.36210 34064 ft 428 kts 315°
2026-05-07 20:52 49.85188 2.30139 34065 ft 428 kts 315°
2026-05-07 20:53 49.89635 2.24026 34072 ft 429 kts 315°
2026-05-07 20:53 49.94099 2.17868 34074 ft 429 kts 315°
2026-05-07 20:54 49.98545 2.11706 34072 ft 428 kts 315°
2026-05-07 20:54 50.02957 2.05582 34071 ft 428 kts 315°
2026-05-07 20:55 50.07388 1.99414 34070 ft 428 kts 315°
2026-05-07 20:55 50.11824 1.93230 34074 ft 428 kts 315°
2026-05-07 20:56 50.16254 1.87035 34076 ft 428 kts 315°
2026-05-07 20:56 50.20548 1.80622 34079 ft 428 kts 313°
2026-05-07 20:57 50.24805 1.74123 34079 ft 428 kts 313°
2026-05-07 20:57 50.29038 1.67670 34080 ft 428 kts 313°
2026-05-07 20:58 50.33291 1.61217 34074 ft 421 kts 313°
2026-05-07 20:58 50.37478 1.54800 34081 ft 425 kts 313°
2026-05-07 20:59 50.41726 1.48265 34092 ft 428 kts 313°
2026-05-07 20:59 50.45960 1.41731 34081 ft 426 kts 313°
2026-05-07 21:00 50.50123 1.35164 34080 ft 427 kts 310°
2026-05-07 21:00 50.54157 1.28333 34080 ft 423 kts 310°
2026-05-07 21:01 50.58154 1.21622 34080 ft 424 kts 311°
2026-05-07 21:01 50.62557 1.15322 34088 ft 430 kts 318°
2026-05-07 21:02 50.67208 1.09414 34096 ft 428 kts 318°
2026-05-07 21:02 50.71794 1.03507 34102 ft 428 kts 317°
2026-05-07 21:03 50.76389 0.97554 34100 ft 424 kts 317°
2026-05-07 21:03 50.80913 0.91669 34090 ft 424 kts 317°
2026-05-07 21:04 50.85509 0.85678 34102 ft 431 kts 317°
2026-05-07 21:04 50.90092 0.79676 34097 ft 430 kts 317°
2026-05-07 21:05 50.94688 0.73614 34042 ft 430 kts 317°
2026-05-07 21:05 50.99284 0.67563 33991 ft 429 kts 317°
2026-05-07 21:06 51.03888 0.61513 33935 ft 429 kts 317°
2026-05-07 21:06 51.08456 0.55488 33882 ft 429 kts 317°
2026-05-07 21:07 51.13028 0.49391 33849 ft 429 kts 317°
2026-05-07 21:07 51.17611 0.43304 33849 ft 430 kts 317°
2026-05-07 21:08 51.22207 0.37188 33850 ft 431 kts 317°
2026-05-07 21:08 51.26780 0.31102 33864 ft 431 kts 317°
2026-05-07 21:09 51.31320 0.25023 33524 ft 416 kts 317°
2026-05-07 21:09 51.33517 0.22081 33307 ft 408 kts 317°
2026-05-07 21:09 51.35676 0.19182 32835 ft 403 kts 317°
2026-05-07 21:09 51.37819 0.16304 32333 ft 400 kts 317°
2026-05-07 21:10 51.39934 0.13459 31812 ft 396 kts 317°
2026-05-07 21:10 51.42040 0.10620 31323 ft 394 kts 317°
2026-05-07 21:10 51.44097 0.07842 30835 ft 391 kts 317°
2026-05-07 21:10 51.46165 0.05043 30372 ft 387 kts 317°
2026-05-07 21:11 51.48218 0.02267 29867 ft 384 kts 317°
2026-05-07 21:11 51.50254 -0.00487 29288 ft 381 kts 317°
2026-05-07 21:11 51.54271 -0.05937 28313 ft 375 kts 316°
2026-05-07 21:12 51.56253 -0.08634 27853 ft 371 kts 316°
2026-05-07 21:12 51.58211 -0.11300 27413 ft 368 kts 316°
2026-05-07 21:12 51.60156 -0.13954 26956 ft 365 kts 316°
2026-05-07 21:12 51.62060 -0.16555 26497 ft 363 kts 316°
2026-05-07 21:13 51.63975 -0.19173 26038 ft 360 kts 316°
2026-05-07 21:13 51.65874 -0.21776 25606 ft 358 kts 316°
2026-05-07 21:13 51.67768 -0.24368 25184 ft 355 kts 316°
2026-05-07 21:13 51.69645 -0.26940 24737 ft 353 kts 316°
2026-05-07 21:14 51.71515 -0.29503 24287 ft 352 kts 316°
2026-05-07 21:14 51.73379 -0.32064 23850 ft 351 kts 316°
2026-05-07 21:14 51.75234 -0.34615 23373 ft 350 kts 316°
2026-05-07 21:14 51.77057 -0.37128 22883 ft 348 kts 316°
2026-05-07 21:15 51.78894 -0.39661 22387 ft 346 kts 316°
2026-05-07 21:15 51.80713 -0.42173 21913 ft 343 kts 316°
2026-05-07 21:15 51.82520 -0.44673 21454 ft 340 kts 316°
2026-05-07 21:15 51.84310 -0.47155 20993 ft 338 kts 316°
2026-05-07 21:16 51.86087 -0.49623 20535 ft 336 kts 316°
2026-05-07 21:16 51.87852 -0.52078 20086 ft 334 kts 316°
2026-05-07 21:16 51.89606 -0.54521 19636 ft 332 kts 316°
2026-05-07 21:16 51.91347 -0.56950 19195 ft 330 kts 316°
2026-05-07 21:17 51.93055 -0.59335 18771 ft 328 kts 316°
2026-05-07 21:17 51.94774 -0.61741 18349 ft 326 kts 316°
2026-05-07 21:17 51.96487 -0.64141 17871 ft 324 kts 316°
2026-05-07 21:17 51.98189 -0.66531 17387 ft 323 kts 316°
2026-05-07 21:18 51.99881 -0.68913 17008 ft 322 kts 316°
2026-05-07 21:18 52.01565 -0.71286 16673 ft 321 kts 316°
2026-05-07 21:18 52.03247 -0.73661 16355 ft 320 kts 316°
2026-05-07 21:18 52.04919 -0.76027 16063 ft 318 kts 316°
2026-05-07 21:19 52.06586 -0.78386 15770 ft 316 kts 316°
2026-05-07 21:19 52.08219 -0.80701 15480 ft 315 kts 316°
2026-05-07 21:19 52.09866 -0.83038 15196 ft 314 kts 316°
2026-05-07 21:19 52.11510 -0.85377 14915 ft 313 kts 316°
2026-05-07 21:20 52.13144 -0.87704 14649 ft 312 kts 316°
2026-05-07 21:20 52.14777 -0.90034 14368 ft 312 kts 316°
2026-05-07 21:20 52.16405 -0.92360 14083 ft 311 kts 316°
2026-05-07 21:20 52.18024 -0.94678 13805 ft 310 kts 316°
2026-05-07 21:21 52.19096 -0.96214 13594 ft 309 kts 316°
2026-05-07 21:21 52.20705 -0.98525 13293 ft 308 kts 316°
2026-05-07 21:21 52.22315 -1.00835 12990 ft 308 kts 316°
2026-05-07 21:21 52.24433 -1.03883 12597 ft 306 kts 316°
2026-05-07 21:22 52.26026 -1.06184 12301 ft 305 kts 316°
2026-05-07 21:22 52.27080 -1.07709 12110 ft 305 kts 316°
2026-05-07 21:22 52.29199 -1.10779 11731 ft 304 kts 316°
2026-05-07 21:22 52.30182 -1.12391 11535 ft 302 kts 307°
2026-05-07 21:23 52.31398 -1.15170 11257 ft 300 kts 301°
2026-05-07 21:23 52.32527 -1.18040 10964 ft 300 kts 301°
2026-05-07 21:23 52.33638 -1.20920 10691 ft 299 kts 300°
2026-05-07 21:23 52.34738 -1.23791 10423 ft 297 kts 300°
2026-05-07 21:24 52.36157 -1.27508 10046 ft 285 kts 300°
2026-05-07 21:24 52.37189 -1.30220 9741 ft 278 kts 300°
2026-05-07 21:24 52.37880 -1.32037 9520 ft 278 kts 300°
2026-05-07 21:24 52.38900 -1.34723 9214 ft 277 kts 300°
2026-05-07 21:25 52.39902 -1.37364 8895 ft 276 kts 300°
2026-05-07 21:25 52.40914 -1.40031 8584 ft 276 kts 300°
2026-05-07 21:25 52.41927 -1.42699 8264 ft 275 kts 300°
2026-05-07 21:25 52.42937 -1.45357 7958 ft 275 kts 300°
2026-05-07 21:26 52.43946 -1.48014 7667 ft 274 kts 300°
2026-05-07 21:26 52.45122 -1.50478 7366 ft 276 kts 314°
2026-05-07 21:26 52.46571 -1.52517 7075 ft 275 kts 320°
2026-05-07 21:26 52.48057 -1.54437 6787 ft 274 kts 320°
2026-05-07 21:27 52.49558 -1.56359 6495 ft 273 kts 320°
2026-05-07 21:27 52.51056 -1.58277 6199 ft 273 kts 320°
2026-05-07 21:27 52.52552 -1.60188 5928 ft 272 kts 320°
2026-05-07 21:27 52.54039 -1.62085 5669 ft 271 kts 320°
2026-05-07 21:28 52.55498 -1.63946 5425 ft 271 kts 320°
2026-05-07 21:28 52.57016 -1.65877 5180 ft 270 kts 320°
2026-05-07 21:28 52.58488 -1.67748 4934 ft 263 kts 320°
2026-05-07 21:28 52.59911 -1.69551 4671 ft 254 kts 320°
2026-05-07 21:29 52.61265 -1.71271 4395 ft 245 kts 320°
2026-05-07 21:29 52.62343 -1.73299 4093 ft 230 kts 292°
2026-05-07 21:29 52.62653 -1.75725 3881 ft 208 kts 265°
2026-05-07 21:29 52.62521 -1.77963 3821 ft 187 kts 260°
2026-05-07 21:30 52.62363 -1.80065 3619 ft 184 kts 260°
2026-05-07 21:30 52.62210 -1.82152 3384 ft 183 kts 260°
2026-05-07 21:30 52.62052 -1.84240 3192 ft 183 kts 257°
2026-05-07 21:30 52.61485 -1.86034 3003 ft 178 kts 221°
2026-05-07 21:31 52.60385 -1.86872 2854 ft 176 kts 192°
2026-05-07 21:31 52.59174 -1.87214 2721 ft 176 kts 189°
2026-05-07 21:31 52.57989 -1.87524 2564 ft 175 kts 186°
2026-05-07 21:31 52.56795 -1.87233 2472 ft 176 kts 161°
2026-05-07 21:32 52.55703 -1.86323 2472 ft 176 kts 150°
2026-05-07 21:32 52.54688 -1.85183 2356 ft 177 kts 147°
2026-05-07 21:32 52.53678 -1.84052 2136 ft 172 kts 148°
2026-05-07 21:32 52.52723 -1.82985 1899 ft 159 kts 148°
2026-05-07 21:33 52.51837 -1.81996 1700 ft 152 kts 148°
2026-05-07 21:33 52.50994 -1.81053 1489 ft 137 kts 148°
2026-05-07 21:33 52.50208 -1.80178 1282 ft 137 kts 148°
2026-05-07 21:33 52.49420 -1.79299 1090 ft 136 kts 147°
2026-05-07 21:34 52.48644 -1.78434 888 ft 137 kts 146°
2026-05-07 21:34 52.47856 -1.77548 722 ft 138 kts 144°
2026-05-07 21:34 52.47065 -1.76660 536 ft 137 kts 144°
2026-05-07 21:34 52.46271 -1.75782 338 ft 138 kts 144°
2026-05-07 21:35 52.45569 -1.75004 328 ft 98 kts 150°
2026-05-07 21:35 52.45159 -1.74549 335 ft 42 kts 145°
2026-05-07 21:35 52.44988 -1.74359 334 ft 10 kts 145°
2026-05-07 21:35 52.44943 -1.74290 331 ft 10 kts 105°
2026-05-07 21:36 52.44958 -1.74168 332 ft 12 kts 76°
2026-05-07 21:36 52.44980 -1.74032 329 ft 9 kts 75°
2026-05-07 21:36 52.44987 -1.73988 328 ft 2 kts 77°
2026-05-07 21:36 52.44990 -1.73961 328 ft 3 kts 77°
2026-05-07 21:37 52.45002 -1.73918 328 ft 5 kts 57°
2026-05-07 21:37 52.45025 -1.73861 325 ft 7 kts 57°
2026-05-07 21:37 52.45048 -1.73781 326 ft 9 kts 97°
2026-05-07 21:37 52.45002 -1.73708 326 ft 6 kts 145°
2026-05-07 21:38 52.44976 -1.73661 327 ft 6 kts 83°
2026-05-07 21:38 52.44993 -1.73606 327 ft 5 kts 56°
2026-05-07 21:38 52.45003 -1.73580 326 ft 0 kts 56°